Meteo pe oră la Dachau

Astăzi, 22 Aprilie, Joi

Timp Temperatura Precipitaţii Vânt Presiune Umiditate
00:00 +5°C° 0.2 mm 2 m/s 718 mmHg 91%
01:00 +5°C° 0 mm 2 m/s 718 mmHg 92%
02:00 +5°C° 0 mm 2 m/s 718 mmHg 92%
03:00 +4°C° 0 mm 2 m/s 718 mmHg 92%
04:00 +4°C° 0 mm 2 m/s 718 mmHg 92%
05:00 +5°C° 0 mm 2 m/s 719 mmHg 91%
06:00 +5°C° 0 mm 2 m/s 719 mmHg 91%
07:00 +6°C° 0 mm 2 m/s 720 mmHg 91%
08:00 +7°C° 0.1 mm 2 m/s 720 mmHg 87%
09:00 +8°C° 0.1 mm 3 m/s 720 mmHg 84%
10:00 +9°C° 0.1 mm 3 m/s 721 mmHg 81%
11:00 +9°C° 0.1 mm 3 m/s 721 mmHg 79%
12:00 +9°C° 0.1 mm 3 m/s 721 mmHg 77%
13:00 +9°C° 0.1 mm 3 m/s 721 mmHg 75%
14:00 +10°C° 0 mm 3 m/s 721 mmHg 66%
15:00 +10°C° 0 mm 4 m/s 721 mmHg 57%
16:00 +11°C° 0 mm 4 m/s 721 mmHg 47%
17:00 +9°C° 0 mm 3 m/s 721 mmHg 53%
18:00 +8°C° 0 mm 3 m/s 722 mmHg 58%
19:00 +6°C° 0 mm 2 m/s 722 mmHg 64%
20:00 +5°C° 0 mm 2 m/s 722 mmHg 67%
21:00 +4°C° 0 mm 2 m/s 723 mmHg 70%
22:00 +4°C° 0 mm 1 m/s 723 mmHg 73%
23:00 +3°C° 0 mm 1 m/s 723 mmHg 74%

Mâine, 23 Aprilie, Vineri

Timp Temperatura Precipitaţii Vânt Presiune Umiditate
00:00 +3°C° 0 mm 1 m/s 723 mmHg 76%
01:00 +1°C° 0 mm 0 m/s 724 mmHg 78%
02:00 +1°C° 0 mm 0 m/s 724 mmHg 79%
03:00 +1°C° 0 mm 0 m/s 724 mmHg 81%
04:00 0°C° 0 mm 0 m/s 724 mmHg 82%
05:00 +1°C° 0 mm 0 m/s 724 mmHg 77%
06:00 +3°C° 0 mm 0 m/s 724 mmHg 72%
07:00 +4°C° 0 mm 0 m/s 725 mmHg 67%
08:00 +7°C° 0 mm 1 m/s 725 mmHg 61%
09:00 +9°C° 0 mm 1 m/s 725 mmHg 55%
10:00 +11°C° 0 mm 1 m/s 725 mmHg 49%
11:00 +12°C° 0 mm 1 m/s 725 mmHg 46%
12:00 +13°C° 0 mm 2 m/s 724 mmHg 43%
13:00 +14°C° 0 mm 2 m/s 724 mmHg 41%
14:00 +14°C° 0 mm 2 m/s 724 mmHg 41%
15:00 +14°C° 0 mm 2 m/s 724 mmHg 41%
16:00 +14°C° 0 mm 2 m/s 724 mmHg 42%
17:00 +12°C° 0 mm 2 m/s 724 mmHg 49%
18:00 +10°C° 0 mm 2 m/s 724 mmHg 57%
19:00 +9°C° 0 mm 1 m/s 724 mmHg 64%
20:00 +8°C° 0 mm 1 m/s 724 mmHg 66%
21:00 +7°C° 0 mm 1 m/s 724 mmHg 69%
22:00 +6°C° 0 mm 1 m/s 724 mmHg 71%
23:00 +5°C° 0 mm 1 m/s 724 mmHg 73%

Poimâine, 24 Aprilie, Sâmbătă

Timp Temperatura Precipitaţii Vânt Presiune Umiditate
00:00 +4°C° 0 mm 1 m/s 724 mmHg 75%
01:00 +4°C° 0 mm 1 m/s 724 mmHg 77%
02:00 +3°C° 0 mm 1 m/s 723 mmHg 79%
03:00 +3°C° 0 mm 1 m/s 723 mmHg 81%
04:00 +2°C° 0 mm 1 m/s 723 mmHg 82%
05:00 +4°C° 0 mm 1 m/s 723 mmHg 79%
06:00 +5°C° 0 mm 1 m/s 724 mmHg 75%
07:00 +6°C° 0 mm 1 m/s 724 mmHg 71%
08:00 +8°C° 0 mm 1 m/s 723 mmHg 65%
09:00 +10°C° 0 mm 1 m/s 723 mmHg 58%
10:00 +12°C° 0 mm 2 m/s 723 mmHg 52%
11:00 +13°C° 0 mm 2 m/s 723 mmHg 48%
12:00 +15°C° 0 mm 2 m/s 722 mmHg 45%
13:00 +16°C° 0 mm 2 m/s 722 mmHg 41%
14:00 +16°C° 0 mm 2 m/s 722 mmHg 41%
15:00 +16°C° 0 mm 2 m/s 721 mmHg 42%
16:00 +16°C° 0 mm 2 m/s 721 mmHg 42%
17:00 +14°C° 0 mm 2 m/s 721 mmHg 49%
18:00 +12°C° 0 mm 1 m/s 721 mmHg 57%
19:00 +11°C° 0 mm 1 m/s 721 mmHg 64%
20:00 +9°C° 0 mm 1 m/s 721 mmHg 67%
21:00 +8°C° 0 mm 1 m/s 721 mmHg 69%
22:00 +7°C° 0 mm 1 m/s 721 mmHg 72%
23:00 +6°C° 0 mm 1 m/s 721 mmHg 75%

25 Aprilie, Duminică

Timp Temperatura Precipitaţii Vânt Presiune Umiditate
00:00 +6°C° 0 mm 1 m/s 721 mmHg 78%
01:00 +5°C° 0 mm 1 m/s 721 mmHg 81%
02:00 +4°C° 0 mm 1 m/s 721 mmHg 81%
03:00 +4°C° 0 mm 1 m/s 721 mmHg 81%
04:00 +4°C° 0 mm 1 m/s 721 mmHg 82%
05:00 +5°C° 0 mm 1 m/s 722 mmHg 78%
06:00 +5°C° 0 mm 1 m/s 722 mmHg 75%
07:00 +6°C° 0 mm 1 m/s 722 mmHg 71%
08:00 +7°C° 0 mm 2 m/s 722 mmHg 65%
09:00 +9°C° 0 mm 2 m/s 722 mmHg 59%
10:00 +11°C° 0 mm 3 m/s 722 mmHg 52%
11:00 +12°C° 0 mm 3 m/s 722 mmHg 49%
12:00 +14°C° 0 mm 2 m/s 722 mmHg 46%
13:00 +15°C° 0 mm 2 m/s 721 mmHg 43%
14:00 +14°C° 0 mm 3 m/s 721 mmHg 43%
15:00 +14°C° 0 mm 3 m/s 721 mmHg 43%
16:00 +14°C° 0 mm 3 m/s 720 mmHg 42%
17:00 +12°C° 0 mm 3 m/s 720 mmHg 50%
18:00 +12°C° 0 mm 2 m/s 720 mmHg 58%
19:00 +9°C° 0 mm 2 m/s 719 mmHg 66%
20:00 +8°C° 0 mm 2 m/s 719 mmHg 67%
21:00 +6°C° 0 mm 2 m/s 719 mmHg 68%
22:00 +5°C° 0 mm 2 m/s 719 mmHg 68%
23:00 +4°C° 0 mm 2 m/s 719 mmHg 72%

26 Aprilie, Luni

Timp Temperatura Precipitaţii Vânt Presiune Umiditate
00:00 +4°C° 0 mm 2 m/s 719 mmHg 76%
01:00 +3°C° 0 mm 2 m/s 718 mmHg 79%
02:00 +2°C° 0 mm 2 m/s 718 mmHg 82%
03:00 +2°C° 0 mm 2 m/s 718 mmHg 85%
04:00 +1°C° 0 mm 2 m/s 718 mmHg 88%
05:00 +2°C° 0 mm 2 m/s 718 mmHg 82%
06:00 +4°C° 0 mm 2 m/s 718 mmHg 76%
07:00 +5°C° 0 mm 2 m/s 717 mmHg 70%
08:00 +7°C° 0 mm 3 m/s 717 mmHg 65%
09:00 +9°C° 0 mm 3 m/s 717 mmHg 59%
10:00 +11°C° 0 mm 3 m/s 717 mmHg 54%
11:00 +12°C° 0 mm 3 m/s 716 mmHg 51%
12:00 +13°C° 0 mm 3 m/s 716 mmHg 48%
13:00 +14°C° 0 mm 3 m/s 716 mmHg 45%
14:00 +14°C° 0 mm 3 m/s 715 mmHg 45%
15:00 +14°C° 0 mm 3 m/s 715 mmHg 44%
16:00 +14°C° 0 mm 3 m/s 714 mmHg 43%
17:00 +13°C° 0 mm 3 m/s 714 mmHg 50%
18:00 +11°C° 0 mm 3 m/s 713 mmHg 57%
19:00 +9°C° 0 mm 3 m/s 713 mmHg 64%
20:00 +8°C° 0 mm 3 m/s 713 mmHg 65%
21:00 +7°C° 0 mm 3 m/s 712 mmHg 67%
22:00 +4°C° 0 mm 3 m/s 712 mmHg 69%
23:00 +4°C° 0 mm 3 m/s 711 mmHg 78%

27 Aprilie, Marţi

Timp Temperatura Precipitaţii Vânt Presiune Umiditate
00:00 +4°C° 0 mm 3 m/s 711 mmHg 86%
01:00 +3°C° 0 mm 3 m/s 710 mmHg 94%
02:00 +4°C° 0 mm 2 m/s 710 mmHg 95%
03:00 +4°C° 0 mm 2 m/s 710 mmHg 95%
04:00 +4°C° 0 mm 2 m/s 709 mmHg 96%
05:00 +4°C° 0 mm 2 m/s 709 mmHg 94%
06:00 +5°C° 0 mm 2 m/s 709 mmHg 91%
07:00 +6°C° 0 mm 2 m/s 709 mmHg 89%
08:00 +6°C° 0.2 mm 2 m/s 709 mmHg 87%
09:00 +7°C° 0.2 mm 2 m/s 709 mmHg 86%
10:00 +8°C° 0.2 mm 2 m/s 709 mmHg 85%
11:00 +8°C° 0.3 mm 2 m/s 708 mmHg 86%
12:00 +9°C° 0.3 mm 1 m/s 708 mmHg 87%
13:00 +9°C° 0.3 mm 1 m/s 708 mmHg 88%
14:00 +9°C° 0.3 mm 1 m/s 708 mmHg 90%
15:00 +9°C° 0.3 mm 1 m/s 707 mmHg 92%
16:00 +8°C° 0.3 mm 0 m/s 707 mmHg 94%
17:00 +8°C° 0.5 mm 0 m/s 707 mmHg 95%
18:00 +7°C° 0.5 mm 0 m/s 707 mmHg 96%
19:00 +7°C° 0.5 mm 0 m/s 707 mmHg 97%
20:00 +7°C° 0.8 mm 0 m/s 707 mmHg 97%
21:00 +8°C° 0.8 mm 1 m/s 707 mmHg 97%
22:00 +8°C° 0.8 mm 1 m/s 707 mmHg 98%
23:00 +8°C° 0.9 mm 1 m/s 707 mmHg 98%
Arată mai mult

Formular de consimțământ

Meteoprog și furnizorii noștri de servicii pot stoca și accesa date personale, precum cookies, identificatori de dispozitiv sau alte tehnologii similare pe dispozitivul dumneavoastră și procesa astfel de date pentru a personaliza conținutul și reclamele, dar și pentru a oferi caracteristici de social media și pentru a analiza traficul.

  • Stocarea și/sau accesarea informațiilor pe dispozitivul dumneavoastră

    Cookies, identificatori de dispozitiv sau alte informații pot fi stocate sau accesate pe dispozitiv în scopurile indicate mai sus.

  • Reclame și conținut personalizat, evaluarea reclamelor și a conținutului, informații despre audiențe și dezvoltarea produselor

    Reclamele și conținutul pot fi personalizate pe baza unui profil. Pot fi adăugate date suplimentare pentru a personaliza mai bine reclamele și conținutul. Performanța reclamelor și conținutului poate fi măsurată. Pot fi obținute informații despre utilizatorii care au văzut reclamele și conținutul. Aceste date pot fi utilizate pentru a dezvolta sau îmbunătăți experiența utilizatorilor, sistemele și software-ul.

Dând clic pe ‘Sunt de acord’, permiteți utilizarea cookie-urilor menționate, a identificatorilor de dispozitiv, balizelor web sau altor tehnologii similare. Setările pot fi modificate din browser-ul dispozitivului dumneavoastră.

În anumite scopuri, interesele legitime pot prima asupra consimțământului. Puteți citi mai multe informații în acest sens în Politica privind Confidențialitatea Datelor și Cookie.